Land O' Lakes, WI

3:03 PM CDT on August 28, 2016 (GMT -0500)
Kings Land O'Lakes

Weather History for KLNL - November, 2014

Change the Weather History Date:

Thursday, November 20, 2014

  Actual Average (KEGV) Record (KEGV)
Temperature  
Mean Temperature 9 °F -  
Max Temperature 13 °F 33 °F 52 °F (1990)
Min Temperature 3 °F 23 °F -1 °F (2014)
Degree Days  
Heating Degree Days 56    
Moisture  
Dew Point 3 °F    
Average Humidity 75    
Maximum Humidity 87    
Minimum Humidity 62    
Precipitation  
Precipitation 0.00 in - - ()
Sea Level Pressure  
Sea Level Pressure 29.89 in    
Wind  
Wind Speed 9 mph (West)    
Max Wind Speed 14 mph    
Max Gust Speed 23 mph    
Visibility 8 miles    
Events Snow    
Averages and records for this station are not official NWS values.
T = Trace of Precipitation, MM = Missing Value Source: NWS Daily Summary

Daily Weather History Graph

Daily Weather History Graph

Search for Another Location

Airport or City:

Trip Planner

Search our weather history database for the weather conditions in past years. The results will help you decide how hot, cold, wet, or windy it might be!

Date:

Astronomy

Nov. 20, 2014 Rise Set
Actual Time 7:04 AM CST 4:19 PM CST
Civil Twilight 6:31 AM CST 4:52 PM CST
Nautical Twilight 5:54 AM CST 5:29 PM CST
Astronomical Twilight 5:19 AM CST 6:05 PM CST
Moon 4:52 AM CST (11/20) 3:29 PM CST (11/20)
Length of Visible Light 10h 21m
Length of Day
9h 15m
Waning Crescent, 4% of the Moon is Illuminated
Nov 20
Waning Crescent
Nov 22
New
Nov 29
First Quarter
Dec 6
Full
Dec 14
Last Quarter

Hourly Weather History & Observations

Time (CST) Temp. Windchill Dew Point Humidity Pressure Visibility Wind Dir Wind Speed Gust Speed Precip Events Conditions
12:15 AM 12.4 °F -2.9 °F 5.7 °F 75% 29.69 in 10.0 mi WNW 13.8 mph 23.0 mph N/A   Scattered Clouds
12:35 AM 11.7 °F -0.9 °F 4.8 °F 74% 29.70 in 10.0 mi West 9.2 mph 16.1 mph N/A   Clear
12:55 AM 10.9 °F -1.8 °F 4.8 °F 76% 29.70 in 10.0 mi West 9.2 mph 17.3 mph N/A   Clear
1:15 AM 10.2 °F 0.6 °F 4.6 °F 78% 29.70 in 10.0 mi West 5.8 mph - N/A   Clear
1:35 AM 9.9 °F -2.2 °F 4.3 °F 78% 29.71 in 10.0 mi West 8.1 mph - N/A   Clear
1:55 AM 9.9 °F -3.1 °F 4.1 °F 78% 29.71 in 10.0 mi WNW 9.2 mph 17.3 mph N/A   Clear
2:15 AM 9.5 °F -2.6 °F 4.1 °F 79% 29.71 in 10.0 mi West 8.1 mph 16.1 mph N/A   Clear
2:35 AM 9.3 °F -1.7 °F 3.9 °F 79% 29.72 in 10.0 mi West 6.9 mph 17.3 mph N/A   Clear
2:55 AM 9.0 °F -3.2 °F 3.9 °F 80% 29.72 in 10.0 mi West 8.1 mph 19.6 mph N/A   Mostly Cloudy
3:15 AM 8.6 °F -3.7 °F 3.4 °F 79% 29.72 in 10.0 mi West 8.1 mph - N/A   Scattered Clouds
3:35 AM 8.6 °F -3.7 °F 3.2 °F 79% 29.72 in 10.0 mi West 8.1 mph 16.1 mph N/A   Mostly Cloudy
3:55 AM 8.6 °F -4.7 °F 2.8 °F 77% 29.72 in 10.0 mi West 9.2 mph - N/A   Overcast
4:15 AM 8.6 °F -4.7 °F 2.3 °F 76% 29.73 in 10.0 mi WNW 9.2 mph 17.3 mph N/A   Overcast
4:35 AM 8.6 °F -3.7 °F 2.3 °F 76% 29.73 in 10.0 mi West 8.1 mph - N/A   Overcast
4:55 AM 8.6 °F -5.5 °F 2.3 °F 76% 29.74 in 10.0 mi West 10.4 mph 18.4 mph N/A   Overcast
5:15 AM 8.6 °F -7.0 °F 2.7 °F 77% 29.74 in 10.0 mi West 12.7 mph 19.6 mph N/A   Overcast
5:35 AM 8.4 °F -4.9 °F 2.8 °F 78% 29.75 in 10.0 mi West 9.2 mph - N/A   Overcast
5:55 AM 7.9 °F -7.2 °F 2.3 °F 78% 29.75 in 10.0 mi West 11.5 mph 17.3 mph N/A   Overcast
6:15 AM 7.7 °F -5.8 °F 2.3 °F 79% 29.76 in 10.0 mi WNW 9.2 mph 16.1 mph N/A   Mostly Cloudy
6:35 AM 7.2 °F -6.4 °F 2.1 °F 80% 29.76 in 10.0 mi West 9.2 mph - N/A   Clear
6:55 AM 6.8 °F -7.8 °F 2.1 °F 81% 29.77 in 10.0 mi WNW 10.4 mph - N/A   Clear
7:15 AM 6.8 °F -5.9 °F 2.1 °F 81% 29.78 in 10.0 mi WNW 8.1 mph - N/A   Clear
7:35 AM 7.2 °F -5.4 °F 1.8 °F 79% 29.78 in 10.0 mi West 8.1 mph 17.3 mph N/A   Clear
7:55 AM 7.5 °F -7.7 °F 2.1 °F 79% 29.79 in 10.0 mi WNW 11.5 mph 18.4 mph N/A   Clear
8:15 AM 8.1 °F -4.3 °F 1.9 °F 76% 29.80 in 10.0 mi WNW 8.1 mph 17.3 mph N/A   Clear
8:35 AM 8.8 °F -6.1 °F 2.3 °F 75% 29.81 in 10.0 mi West 11.5 mph 16.1 mph N/A   Clear
8:55 AM 9.5 °F -1.5 °F 2.3 °F 73% 29.81 in 10.0 mi WNW 6.9 mph 16.1 mph N/A   Clear
9:15 AM 10.2 °F -2.7 °F 3.0 °F 73% 29.82 in 5.0 mi WNW 9.2 mph 19.6 mph N/A   Haze
9:35 AM 10.4 °F -5.4 °F 3.0 °F 72% 29.83 in 4.0 mi WNW 13.8 mph 18.4 mph N/A   Haze
9:55 AM 10.8 °F -2.8 °F 3.6 °F 73% 29.83 in 2.0 mi WNW 10.4 mph 19.6 mph N/A   Haze
10:15 AM 11.1 °F -2.4 °F 3.0 °F 70% 29.84 in 4.0 mi WNW 10.4 mph 18.4 mph N/A   Haze
10:35 AM 11.1 °F -3.2 °F 3.0 °F 70% 29.84 in 5.0 mi West 11.5 mph 19.6 mph N/A   Haze
10:55 AM 12.0 °F -1.3 °F 3.0 °F 67% 29.84 in 5.0 mi WNW 10.4 mph 18.4 mph N/A   Haze
11:15 AM 11.3 °F -2.2 °F 2.1 °F 67% 29.85 in 10.0 mi WNW 10.4 mph 19.6 mph N/A   Mostly Cloudy
11:35 AM 12.2 °F -1.0 °F 1.8 °F 63% 29.86 in 10.0 mi WNW 10.4 mph 21.9 mph N/A   Overcast
11:55 AM 13.1 °F 0.9 °F 2.7 °F 63% 29.86 in 10.0 mi WNW 9.2 mph 19.6 mph N/A   Overcast
12:15 PM 12.2 °F -3.1 °F 2.7 °F 66% 29.87 in 5.0 mi WNW 13.8 mph 17.3 mph N/A   Haze
12:35 PM 12.7 °F -1.8 °F 3.0 °F 65% 29.87 in 5.0 mi West 12.7 mph 19.6 mph N/A   Haze
12:55 PM 12.7 °F -1.1 °F 2.3 °F 63% 29.88 in 10.0 mi West 11.5 mph 18.4 mph N/A   Overcast
1:15 PM 11.7 °F -2.5 °F 2.1 °F 66% 29.89 in 10.0 mi West 11.5 mph 19.6 mph N/A   Overcast
1:35 PM 12.0 °F -0.4 °F 2.8 °F 67% 29.89 in 5.0 mi West 9.2 mph 17.3 mph N/A   Haze
1:55 PM 11.7 °F -0.9 °F 2.1 °F 66% 29.90 in 7.0 mi WNW 9.2 mph 19.6 mph N/A   Overcast
2:15 PM 11.1 °F -2.4 °F 0.5 °F 62% 29.91 in 10.0 mi West 10.4 mph 18.4 mph N/A   Overcast
2:35 PM 11.3 °F -1.3 °F 1.6 °F 65% 29.92 in 10.0 mi WNW 9.2 mph - N/A   Overcast
2:55 PM 10.4 °F -1.5 °F 0.1 °F 63% 29.93 in 10.0 mi WNW 8.1 mph - N/A   Mostly Cloudy
3:15 PM 10.4 °F -4.8 °F 0.5 °F 64% 29.94 in 10.0 mi WNW 12.7 mph 17.3 mph N/A   Mostly Cloudy
3:35 PM 10.2 °F 0.6 °F 0.3 °F 64% 29.95 in 10.0 mi WNW 5.8 mph 16.1 mph N/A   Mostly Cloudy
3:55 PM 9.3 °F -0.5 °F -0.0 °F 66% 29.97 in 10.0 mi West 5.8 mph 16.1 mph N/A   Mostly Cloudy
4:15 PM 8.2 °F -6.0 °F 0.1 °F 70% 29.98 in 10.0 mi West 10.4 mph 17.3 mph N/A   Mostly Cloudy
4:35 PM 7.5 °F -3.9 °F 0.1 °F 72% 29.99 in 10.0 mi West 6.9 mph - N/A   Mostly Cloudy
4:55 PM 7.5 °F -5.0 °F 0.5 °F 73% 30.00 in 10.0 mi West 8.1 mph - N/A   Overcast
5:15 PM 7.5 °F -1.1 °F 0.5 °F 73% 30.00 in 10.0 mi WSW 4.6 mph - N/A   Overcast
5:35 PM 7.3 °F -1.3 °F 0.7 °F 74% 30.01 in 10.0 mi WSW 4.6 mph - N/A   Overcast
5:55 PM 7.5 °F -2.6 °F 1.2 °F 75% 30.01 in 10.0 mi West 5.8 mph - N/A   Overcast
6:15 PM 7.7 °F -3.7 °F 1.9 °F 77% 30.02 in 5.0 mi West 6.9 mph - N/A Snow Light Snow
6:35 PM 7.7 °F -2.4 °F 2.7 °F 80% 30.02 in 4.0 mi West 5.8 mph - N/A Snow Light Snow
6:55 PM 8.2 °F -1.8 °F 3.6 °F 81% 30.03 in 4.0 mi West 5.8 mph - N/A Snow Light Snow
7:15 PM 9.0 °F 0.6 °F 4.5 °F 82% 30.03 in 3.0 mi West 4.6 mph - N/A Snow Light Snow
7:35 PM 9.1 °F -1.9 °F 5.0 °F 83% 30.04 in 2.5 mi West 6.9 mph - N/A Snow Light Snow
7:55 PM 9.5 °F -1.5 °F 5.5 °F 84% 30.05 in 3.0 mi WNW 6.9 mph - N/A Snow Light Snow
8:15 PM 10.0 °F 0.4 °F 5.9 °F 83% 30.05 in 4.0 mi West 5.8 mph - N/A Snow Light Snow
8:35 PM 10.2 °F 2.0 °F 6.1 °F 83% 30.06 in 3.0 mi WNW 4.6 mph - N/A Snow Light Snow
8:55 PM 10.4 °F 0.8 °F 6.6 °F 85% 30.07 in 2.5 mi West 5.8 mph - N/A Snow Light Snow
9:15 PM 10.8 °F 1.2 °F 6.8 °F 84% 30.08 in 3.0 mi WNW 5.8 mph - N/A Snow Light Snow
9:35 PM 10.9 °F 0.2 °F 6.8 °F 83% 30.08 in 3.0 mi West 6.9 mph - N/A Snow Light Snow
9:55 PM 10.8 °F 2.7 °F 6.4 °F 83% 30.09 in 5.0 mi West 4.6 mph - N/A Snow Light Snow
10:15 PM 9.5 °F -1.5 °F 5.4 °F 83% 30.09 in 7.0 mi West 6.9 mph - N/A Snow Light Snow
10:35 PM 8.4 °F -0.1 °F 4.3 °F 83% 30.10 in 10.0 mi WNW 4.6 mph - N/A Snow Light Snow
10:55 PM 7.5 °F -2.6 °F 3.7 °F 85% 30.11 in 10.0 mi West 5.8 mph - N/A   Clear
11:15 PM 6.6 °F -2.2 °F 3.0 °F 85% 30.12 in 10.0 mi West 4.6 mph - N/A   Clear
11:35 PM 5.0 °F -2.1 °F 1.9 °F 87% 30.12 in 10.0 mi WSW 3.5 mph - N/A   Clear
11:55 PM 3.0 °F -6.4 °F -0.0 °F 87% 30.13 in 10.0 mi WSW 4.6 mph - N/A   Clear